Regional Weather Roundup
Issued by NWS

Home | Current Version | Previous Version | Text Only | Print | Product List | Glossary Off
Versions: 1 2 3 4 5 6 7 8 9 10 11 12 13 14 15 16 17 18 19 20 21 22 23 24 25 26 27 28 29 30 31 32 33 34 35 36 37 38 39 40 41 42 43 44 45 46 47 48 49 50

000
ASUS45 KTFX 181004
RWRMT
MONTANA HOURLY WEATHER ROUNDUP
NATIONAL WEATHER SERVICE GREAT FALLS MT
404 AM MDT THU SEP 18 2014

NOTE: "FAIR" INDICATES FEW OR NO CLOUDS BELOW 12000 FEET WITH NO
SIGNIFICANT WEATHER AND/OR OBSTRUCTIONS TO VISIBILITY.

* THESE STATIONS ARE NOT UNDER NWS QUALITY CONTROL. THEY DO NOT
   REPORT WEATHER SUCH AS PRECIPITATION OR FOG.

MTZ001>007-043-181100-
WEST OF THE DIVIDE
CITY           SKY/WX    TMP DP  RH WIND       PRES   REMARKS
KALISPELL      MOCLDY    48  46  93 CALM      29.71F
MISSOULA       CLOUDY    54  45  72 CALM      29.75F
BUTTE          CLOUDY    46  39  77 CALM      29.91F
MULLAN PASS    MOCLDY    61  37  41 SE5       29.86F
* ESSEX        N/A       49  45  86 N/A        N/A
* LINCOLN      N/A       42  39  89 N/A        N/A
* LOOKOUT PASS N/A       56  42  60 S2         N/A
* POLSON       N/A       60  46  60 N/A        N/A
* RONAN APT    MOCLDY    54  46  74 N/A        N/A
* SEELEY LAKE  N/A       45  40  83 NE1        N/A
* THOMP F APT  MOCLDY    61  38  43 NE3        N/A
$$

MTZ008-052>055-181100-
SOUTHWEST MONTANA
CITY           SKY/WX    TMP DP  RH WIND       PRES   REMARKS
BOZEMAN        MOCLDY    52  45  77 S3        29.85F
DILLON         CLOUDY    57  39  51 CALM      29.89F
W YELLOWSTONE  CLOUDY    39  36  89 SW3       30.06S
* THREE FORKS  MOCLDY    48  18  30 N/A        N/A
* BOULDER HILL N/A       56  35  45 S8         N/A
* MONIDA PASS  N/A       58  37  46 SE6        N/A
* RAYNOLDS PAS N/A       51  32  48 S12        N/A
* WHITEHALL    N/A       50  41  71 NW4G10     N/A
* WISE RIVER   N/A       43  35  73 NE1        N/A
$$

MTZ009>010-012-014-046-048-049-054-181100-
EAST SLOPES AND CENTRAL MONTANA
CITY           SKY/WX    TMP DP  RH WIND       PRES   REMARKS
CUT BANK       CLOUDY    55  46  72 SW6       29.72F
GREAT FALLS    MOCLDY    66  41  40 S13       29.74F
HELENA         PTCLDY    55  46  72 CALM      29.80F
MALMSTROM AFB  MOCLDY    64  43  47 SW13      29.74F
* CONRAD       CLOUDY    54  52  93 N/A        N/A
* EAST GLACIER N/A       54  43  67 NW3        N/A
* MONARCH      N/A       56  35  45 S13        N/A
* PENDROY      N/A       62  45  54 W3         N/A
* ROGERS PASS  N/A       56  38  51 NW3        N/A
* SAINT MARY   N/A       46  42  86 SE3        N/A
* SWEET GRASS  N/A       59  46  62 S12        N/A
$$

MTZ011-013-016-021-035-040-045-047-050-051-181100-
NORTH CENTRAL MONTANA
CITY           SKY/WX    TMP DP  RH WIND       PRES   REMARKS
HAVRE          PTCLDY    54  50  86 CALM      29.67F
LEWISTOWN      PTCLDY    55  43  64 SE7       29.80F
* CHESTER      N/A       53  47  80 N/A        N/A
* DENTON       N/A       54  42  64 SW2        N/A
* GEYSER       N/A       59  40  50 NE1        N/A
* JUDITH GAP   N/A       53  50  90 SE8        N/A
* LOMA         N/A       62  50  65 NE3        N/A
$$

MTZ017>020-022>027-061-062-181100-
NORTHEAST MONTANA
CITY           SKY/WX    TMP DP  RH WIND       PRES   REMARKS
GLASGOW        PTCLDY    55  46  72 E15       29.70F
GLENDIVE       PTCLDY    55  50  83 S8        29.80F
JORDAN         PTCLDY    52  48  86 CALM      29.73F
SIDNEY         CLEAR     54  48  80 S5        29.81F
WOLF POINT     CLEAR     50  45  83 E6        29.74F
* BEAVER HILL  N/A       56  50  80 SE17G22    N/A
* CIRCLE       N/A       60  52  75 N/A        N/A
* LINDSAY DVD  N/A       51  49  93 E2         N/A
* NAVAJO       N/A       50  45  83 SE4        N/A
* SACO         N/A       55  49  80 E9         N/A
$$

MTZ028>042-056>058-181100-
SOUTHCENTRAL AND SOUTHEAST MONTANA
CITY           SKY/WX    TMP DP  RH WIND       PRES   REMARKS
BAKER          PTCLDY    55  50  83 SE10      29.84F
BILLINGS       PTCLDY    63  46  54 SW8       29.80F
LIVINGSTON     MOCLDY    54  43  67 NW5       29.86F
MILES CITY     PTCLDY    61  52  72 S10       29.77F
* LAUREL APT   PTCLDY    68  45  44 SW7        N/A
* ROUNDUP APT  PTCLDY    55  48  77 N/A        N/A
* ALZADA       N/A       49  48  96 SE4        N/A
* HYSHAM       N/A       64  46  52 W6         N/A
* LAME DEER    N/A       65  44  47 S6         N/A
* REED POINT   N/A       50  49  96 NE2        N/A
* ROSCOE HILL  N/A       65  33  30 S6         N/A
$$

REGIONAL REPORTS...DAKOTAS
CITY           SKY/WX    TMP DP  RH WIND       PRES   REMARKS
WILLISTON      CLEAR     57  46  67 SE6       29.81F
DICKINSON      CLEAR     52  46  80 S12       29.86F
BEACH          N/A       54  52  93 S15G21    29.83F
CROSBY         CLEAR     54  50  86 SE14      29.82F
TIOGA          CLEAR     48  48 100 SE8       29.88F
WATFORD CITY   CLEAR     52  45  77 SE5       29.81F
BISMARCK       CLEAR     48  46  93 NE7       29.94F
GRAND FORKS    CLEAR     37  36  96 CALM      30.01F
FARGO          CLEAR     45  43  93 CALM      30.00S
BUFFALO SD     PTCLDY    55  50  83 SE8       29.81F
RAPID CITY     CLEAR     54  50  86 SE5       29.90F
$$

REGIONAL REPORTS...WYOMING/IDAHO/WASHINGTON
CITY           SKY/WX    TMP DP  RH WIND       PRES   REMARKS
GILLETTE       PTCLDY    61  50  67 S15       29.91F
SHERIDAN       PTCLDY    59  46  62 CALM      29.86F
CODY           PTCLDY   N/A N/A N/A N/A        N/A
YELLOWSTONE LA MOCLDY    43  39  86 CALM      30.16F
SALMON         CLOUDY    54  45  72 CALM      29.86S
MULLAN PASS    MOCLDY    61  37  41 SE5       29.86S
SAND POINT     CLOUDY    50  50 100 S6        29.66F
SPOKANE        MOCLDY    59  37  44 SW5       29.67S

$$




USA.gov is the U.S. government's official web portal to all federal, state and local government web resources and services.